Kenosha, WI

9:32 AM CDT on July 25, 2016 (GMT -0500)
Kenosha Regional

Weather History for KENW - December, 2012

Change the Weather History Date:

Monday, December 10, 2012

  Actual Average Record
Temperature  
Mean Temperature 33 °F -  
Max Temperature 36 °F 35 °F 59 °F (2015)
Min Temperature 28 °F 20 °F -8 °F (1958)
Degree Days  
Heating Degree Days 32    
Moisture  
Dew Point 27 °F    
Average Humidity 81    
Maximum Humidity 93    
Minimum Humidity 64    
Precipitation  
Precipitation 0.00 in - - ()
Sea Level Pressure  
Sea Level Pressure 29.79 in    
Wind  
Wind Speed 11 mph (WNW)    
Max Wind Speed 18 mph    
Max Gust Speed 25 mph    
Visibility 8 miles    
Events Snow    
Averages and records for this station are not official NWS values.
T = Trace of Precipitation, MM = Missing Value Source: NWS Daily Summary

Daily Weather History Graph

Daily Weather History Graph

Search for Another Location

Airport or City:

Trip Planner

Search our weather history database for the weather conditions in past years. The results will help you decide how hot, cold, wet, or windy it might be!

Date:

Astronomy

Dec. 10, 2012 Rise Set
Actual Time 7:11 AM CST 4:18 PM CST
Civil Twilight 6:39 AM CST 4:50 PM CST
Nautical Twilight 6:03 AM CST 5:25 PM CST
Astronomical Twilight 5:29 AM CST 6:00 PM CST
Moon 3:51 AM CST (12/10) 2:09 PM CST (12/10)
Length of Visible Light 10h 11m
Length of Day
9h 07m
Waning Crescent, 10% of the Moon is Illuminated
Dec 10
Waning Crescent
Dec 13
New
Dec 19
First Quarter
Dec 28
Full
Jan 4
Last Quarter

Hourly Weather History & Observations

Time (CST) Temp. Windchill Dew Point Humidity Pressure Visibility Wind Dir Wind Speed Gust Speed Precip Events Conditions
12:01 AM 35.6 °F 26.6 °F 33.8 °F 93% 29.68 in 10.0 mi West 13.8 mph 19.6 mph N/A   Overcast
12:34 AM 35.6 °F 28.0 °F 32.0 °F 87% 29.67 in 10.0 mi West 10.4 mph - N/A   Overcast
12:53 AM 36.0 °F 27.5 °F 32.0 °F 86% 29.69 in 10.0 mi West 12.7 mph 19.6 mph N/A   Overcast
1:16 AM 35.6 °F 27.5 °F 32.0 °F 87% 29.67 in 10.0 mi West 11.5 mph - N/A   Overcast
1:53 AM 35.1 °F 24.5 °F 30.9 °F 85% 29.70 in 10.0 mi West 18.4 mph 25.3 mph N/A   Overcast
2:53 AM 35.1 °F 26.4 °F 32.0 °F 89% 29.70 in 7.0 mi West 12.7 mph - N/A   Overcast
3:02 AM 35.6 °F 27.5 °F 32.0 °F 87% 29.67 in 10.0 mi West 11.5 mph - N/A   Overcast
3:28 AM 35.6 °F 27.1 °F 32.0 °F 87% 29.67 in 10.0 mi West 12.7 mph - N/A   Overcast
3:44 AM 33.8 °F 24.3 °F 30.2 °F 87% 29.68 in 8.0 mi West 13.8 mph - N/A   Overcast
3:53 AM 34.0 °F 25.5 °F 30.0 °F 85% 29.70 in 8.0 mi West 11.5 mph - N/A   Overcast
4:53 AM 32.0 °F 21.6 °F 30.0 °F 92% 29.71 in 3.0 mi West 15.0 mph 23.0 mph 0.00 in Snow Light Snow
5:53 AM 32.0 °F 22.5 °F 28.9 °F 88% 29.73 in 7.0 mi West 12.7 mph 21.9 mph 0.00 in   Overcast
6:53 AM 32.0 °F 22.5 °F 28.9 °F 88% 29.74 in 7.0 mi West 12.7 mph - N/A   Overcast
7:53 AM 32.0 °F 23.6 °F 28.9 °F 88% 29.75 in 6.0 mi West 10.4 mph - N/A   Overcast
8:24 AM 32.0 °F 24.8 °F 30.2 °F 93% 29.74 in 2.0 mi West 8.1 mph - 0.00 in Snow Light Snow
8:53 AM 33.1 °F 26.9 °F 30.0 °F 89% 29.78 in 2.0 mi WNW 6.9 mph - 0.00 in   Overcast
9:00 AM 33.8 °F 27.0 °F 30.2 °F 87% 29.76 in 5.0 mi West 8.1 mph - N/A   Overcast
9:53 AM 34.0 °F 27.2 °F 28.9 °F 82% 29.79 in 9.0 mi NNW 8.1 mph - N/A   Overcast
10:00 AM 33.8 °F 25.8 °F 28.4 °F 81% 29.77 in 8.0 mi NNW 10.4 mph - N/A   Overcast
10:53 AM 33.1 °F 25.5 °F 28.0 °F 82% 29.80 in 10.0 mi NW 9.2 mph - N/A   Overcast
11:53 AM 34.0 °F 26.0 °F 27.0 °F 75% 29.81 in 10.0 mi NNW 10.4 mph - N/A   Mostly Cloudy
12:53 PM 33.1 °F 24.4 °F 26.1 °F 75% 29.81 in 10.0 mi NNW 11.5 mph - N/A   Mostly Cloudy
1:53 PM 33.1 °F 25.5 °F 25.0 °F 72% 29.81 in 10.0 mi NW 9.2 mph - N/A   Mostly Cloudy
2:53 PM 33.1 °F 26.1 °F 23.0 °F 66% 29.82 in 10.0 mi NNW 8.1 mph - N/A   Mostly Cloudy
3:53 PM 32.0 °F 24.8 °F 23.0 °F 69% 29.85 in 10.0 mi NW 8.1 mph - N/A   Mostly Cloudy
4:53 PM 30.9 °F 22.8 °F 21.9 °F 69% 29.88 in 10.0 mi North 9.2 mph - N/A   Overcast
5:53 PM 30.0 °F 21.7 °F 21.0 °F 69% 29.90 in 10.0 mi North 9.2 mph - N/A   Overcast
6:53 PM 30.0 °F 21.1 °F 19.0 °F 64% 29.92 in 10.0 mi North 10.4 mph - N/A   Overcast
7:53 PM 30.9 °F 26.2 °F 19.9 °F 64% 29.94 in 10.0 mi NNW 4.6 mph - N/A   Overcast
8:53 PM 30.0 °F 26.5 °F 19.9 °F 66% 29.94 in 10.0 mi North 3.5 mph - N/A   Overcast
9:53 PM 30.0 °F - 21.9 °F 72% 29.95 in 10.0 mi Calm Calm - N/A   Overcast
10:53 PM 30.0 °F 25.2 °F 21.9 °F 72% 29.96 in 10.0 mi West 4.6 mph - N/A   Overcast
11:53 PM 28.9 °F 23.9 °F 24.1 °F 82% 29.94 in 10.0 mi West 4.6 mph - N/A   Overcast